Vertical_Velocity
-4 -5 -6 -7 -6 -6 -4 -4 -3 -3 -4 -5 -6 -6 -6 -5 -5 -4 -4 -4 -4 -4 -5 -6 -6 -5 -3 -1 -4 -7 -8 -7 -7 -6 -5 -3 -2 -3 -3 -2 -2 -1 -2 -1 -1 -1 -1 -1 -0 -0 -1 -1 -1 -0 0 1 1 1 0 -0 -1 -1 -0 0 0 1 2 3 3
-4 -4 -5 -6 -6 -5 -4 -3 -3 -3 -4 -6 -6 -6 -5 -4 -3 -3 -3 -3 -4 -4 -6 -6 -5 -3 -2 -2 -5 -6 -7 -7 -7 -6 -4 -1 3 4 2 0 0 -0 -1 -1 -1 -1 -0 -1 -1 -1 -1 -1 -1 -1 -0 0 0 0 0 -0 -1 -0 -0 0 1 1 2 3 2
-5 -5 -5 -5 -5 -4 -3 -2 -2 -3 -4 -5 -6 -5 -4 -4 -4 -4 -4 -3 -4 -4 -5 -5 -4 -3 -3 -4 -4 -4 -4 -5 -7 -6 -4 -1 4 7 7 4 2 1 1 0 -1 -1 -1 -0 -0 -0 -1 -1 -2 -2 -1 -0 0 0 0 0 -0 -0 -0 0 1 2 2 1 1
-4 -5 -5 -5 -4 -3 -1 -0 -1 -2 -3 -4 -4 -4 -4 -4 -4 -4 -4 -3 -3 -4 -4 -4 -4 -4 -5 -4 -3 -2 -1 -3 -5 -6 -5 -2 2 7 10 8 4 3 2 2 1 -0 -1 -1 -0 -0 -0 -0 -1 -1 -1 -0 0 0 0 0 0 -0 0 1 1 1 1 2 3
-3 -3 -4 -4 -3 -2 -1 -0 -1 -2 -2 -3 -3 -3 -4 -5 -4 -4 -3 -2 -2 -3 -4 -4 -5 -5 -4 -2 -1 -1 -0 -0 -4 -6 -6 -4 -1 4 7 7 6 5 4 4 4 4 2 -0 -0 -0 -0 0 1 1 1 1 1 0 0 0 0 0 1 1 2 2 3 4 4
-4 -4 -4 -3 -2 -1 -0 -0 -1 -1 -2 -2 -2 -3 -4 -4 -4 -3 -3 -3 -3 -3 -3 -4 -4 -3 -2 -2 -2 -1 -0 0 -3 -5 -6 -5 -2 -0 1 3 5 8 9 7 8 8 6 4 2 1 -0 -1 0 1 1 1 1 1 1 1 1 1 2 3 4 4 4 4 5
-5 -5 -4 -3 -1 -0 0 0 0 -0 -1 -2 -3 -4 -4 -3 -3 -3 -3 -3 -2 -2 -3 -4 -3 -3 -3 -4 -4 -3 -1 0 -2 -4 -5 -5 -4 -3 -1 1 4 8 12 13 11 10 10 9 7 4 2 -1 -1 -0 0 1 2 3 3 3 2 3 4 5 4 4 4 6 6
-3 -3 -3 -2 -1 0 0 0 0 -0 -1 -2 -4 -4 -4 -3 -4 -3 -3 -1 -2 -3 -4 -4 -3 -2 -3 -5 -5 -4 -2 -1 -3 -4 -5 -6 -6 -6 -3 1 3 6 9 13 14 13 11 10 9 6 4 1 0 0 1 1 1 2 3 3 3 4 5 4 3 4 7 9 6
-3 -2 -1 -0 0 0 0 -0 -0 -0 -1 -2 -3 -3 -4 -4 -4 -4 -3 -2 -3 -4 -4 -3 -2 -2 -2 -3 -4 -3 -2 -1 -2 -4 -5 -6 -8 -7 -5 -1 1 2 4 6 10 12 11 10 6 3 1 -0 -0 -0 0 1 1 1 1 2 4 4 4 3 5 8 11 10 4
-2 -2 -1 -0 -0 -0 -0 -0 -1 -1 -1 -1 -1 -2 -3 -3 -4 -4 -4 -3 -3 -2 -2 -3 -2 -2 -2 -3 -4 -3 -2 -1 -1 -3 -5 -6 -7 -6 -4 -2 0 1 -0 -2 3 7 9 7 4 1 -1 -1 -1 -1 -0 0 1 2 2 4 5 5 4 4 9 13 15 10 4
-2 -2 -1 -1 -1 -1 -0 -1 -1 -1 -1 -0 -0 -1 -2 -3 -3 -3 -3 -2 -2 -2 -2 -3 -2 -2 -3 -3 -4 -3 -2 -0 -1 -2 -4 -5 -4 -3 -1 -1 1 -0 -3 -7 -1 4 7 6 2 0 -0 0 1 1 1 2 3 4 5 6 6 6 7 8 12 14 13 8 6
-3 -2 -2 -1 -1 -1 -1 -1 -2 -2 -1 0 0 -0 -2 -3 -3 -3 -3 -2 -2 -2 -2 -2 -2 -2 -3 -3 -3 -4 -3 -1 -1 -2 -2 -2 -2 -1 -1 -1 -1 -3 -6 -10 -3 3 7 8 3 1 1 2 3 3 2 2 2 3 4 5 7 8 9 11 12 10 8 6 7
-3 -3 -3 -2 -2 -1 -1 -2 -2 -2 -1 0 0 -0 -1 -2 -3 -3 -3 -3 -2 -2 -1 -1 -1 -2 -2 -2 -3 -4 -4 -3 -2 -1 -0 2 2 -0 -2 -3 -3 -6 -10 -11 -4 2 7 9 4 2 1 2 3 3 3 2 2 1 1 2 4 7 9 12 10 6 3 4 8
-3 -3 -3 -2 -2 -1 -1 -2 -2 -2 -1 -0 0 -0 -1 -2 -3 -3 -3 -4 -3 -2 -2 -1 -0 -0 -1 -1 -2 -3 -4 -4 -4 -2 1 4 4 2 -1 -3 -5 -9 -12 -12 -4 1 5 8 6 3 1 1 1 2 2 3 3 2 0 -0 2 5 8 9 5 1 0 2 8
-3 -3 -2 -2 -2 -2 -2 -3 -3 -3 -2 -1 -0 -0 -1 -2 -3 -3 -4 -4 -3 -3 -2 -1 -0 0 0 -0 -0 -1 -3 -4 -4 -3 -0 2 3 2 -0 -3 -6 -10 -12 -10 -4 -0 2 6 6 5 2 1 0 -0 -0 2 4 4 3 2 4 5 5 3 -1 -2 0 4 8
-3 -2 -2 -2 -2 -2 -3 -3 -3 -3 -2 -2 -1 -1 -1 -2 -3 -4 -4 -4 -4 -3 -2 -2 -1 -0 0 -0 -0 -0 -2 -4 -5 -4 -3 -1 0 1 0 -2 -5 -8 -10 -8 -5 -3 -1 2 4 4 4 2 -0 -1 -1 1 4 5 6 7 7 4 1 -3 -2 1 4 6 9
-2 -2 -2 -2 -2 -2 -3 -3 -3 -3 -3 -2 -1 -1 -1 -2 -2 -3 -4 -4 -4 -3 -2 -2 -1 -0 -0 -0 -1 -1 -2 -4 -6 -6 -5 -4 -2 -0 1 1 -2 -5 -7 -6 -4 -3 -2 -1 1 3 4 4 2 1 1 2 5 6 5 4 3 1 -0 -0 3 6 7 8 7
-1 -1 -1 -1 -1 -2 -2 -3 -3 -3 -3 -2 -2 -2 -2 -2 -2 -2 -3 -4 -4 -3 -3 -2 -1 -0 0 0 -1 -1 -3 -4 -6 -6 -5 -4 -2 -1 1 3 2 -1 -4 -6 -3 -1 1 0 1 4 7 8 7 6 5 5 5 3 -0 -2 -2 -1 1 4 7 8 7 6 5
-1 -1 -0 -0 -1 -1 -2 -3 -3 -3 -3 -2 -2 -2 -2 -2 -2 -2 -2 -2 -3 -3 -3 -3 -2 -1 0 1 1 -0 -2 -4 -5 -5 -4 -3 -3 -2 -1 1 2 1 -1 -5 -3 -0 3 3 4 7 11 14 12 10 8 7 6 4 2 2 1 1 1 3 5 5 5 4 4
-1 -0 -0 -0 -1 -2 -2 -3 -3 -3 -3 -3 -3 -3 -2 -2 -2 -2 -1 -1 -2 -3 -3 -3 -2 -1 0 2 3 2 -0 -3 -4 -4 -4 -3 -3 -4 -5 -4 -1 1 0 -3 -2 -0 1 1 4 8 12 16 16 12 9 6 6 7 8 9 8 6 4 2 2 2 2 1 2
-1 -1 -1 -1 -1 -2 -3 -3 -3 -3 -3 -3 -3 -3 -2 -2 -2 -2 -1 -1 -2 -2 -2 -2 -2 -2 -1 0 2 2 1 -1 -3 -3 -3 -2 -2 -4 -6 -7 -4 -1 -1 -4 -1 0 1 0 2 5 10 13 15 13 10 6 6 8 10 12 13 12 10 6 4 2 1 1 1
-1 -1 -1 -2 -2 -3 -3 -3 -3 -3 -3 -3 -3 -2 -2 -2 -1 -1 -1 -1 -1 -1 -2 -2 -2 -2 -2 -1 0 1 2 2 0 -1 -1 -0 -0 -1 -4 -8 -7 -6 -6 -9 -3 0 1 0 1 3 6 8 11 12 11 8 7 8 10 12 13 13 12 10 7 5 3 2 2
-1 -1 -2 -3 -3 -3 -3 -3 -3 -2 -2 -2 -2 -2 -1 -1 -1 -1 -1 -1 -1 -1 -1 -1 -1 -2 -1 -1 -0 1 2 3 3 2 2 3 2 1 -1 -6 -9 -11 -12 -12 -6 -2 -0 -0 0 1 3 5 6 7 8 8 7 7 8 8 8 9 9 8 7 6 5 4 4
-1 -2 -2 -2 -3 -3 -2 -2 -1 -1 -1 -2 -2 -2 -2 -1 -1 -0 -0 -0 -1 -1 -1 -1 -1 -1 -1 -0 0 1 1 2 2 3 4 5 4 3 1 -0 -5 -11 -14 -9 -7 -4 -2 -2 -2 -1 1 3 4 4 4 4 5 5 5 5 5 5 5 5 5 5 5 5 5
-1 -2 -2 -2 -2 -2 -2 -1 -1 -1 -2 -2 -2 -2 -2 -1 -0 -0 -1 -1 -1 -1 -1 -1 -1 -0 -0 0 0 0 1 1 1 2 3 5 4 3 3 5 2 1 -0 -0 -3 -3 -3 -3 -3 -2 -0 1 2 4 4 4 3 3 2 2 3 4 4 4 3 3 3 4 4
-1 -1 -1 -2 -2 -2 -1 -1 -1 -2 -2 -2 -2 -1 -1 -1 -1 -1 -2 -2 -1 -1 -1 -1 -1 -0 0 -0 -0 -0 0 1 1 1 2 4 3 2 1 4 5 15 22 13 2 -2 -2 -2 -3 -3 -1 1 1 1 2 4 3 2 1 -0 0 1 3 4 4 3 3 2 2
0 -0 -0 -1 -1 -1 -1 -1 -1 -2 -2 -1 -1 -1 -1 -1 -1 -2 -2 -2 -2 -2 -1 -1 -0 -0 -1 -1 -1 -1 -1 -0 0 0 0 1 2 2 1 1 0 18 34 25 4 -2 -2 -2 -3 -4 -3 -1 1 1 1 1 2 2 1 -0 -1 -1 -0 1 2 3 3 3 2
1 1 0 -0 -0 -1 -1 -1 -1 -1 -1 -1 -1 -1 -1 -2 -2 -2 -2 -2 -2 -1 -1 -1 -1 -2 -2 -2 -2 -2 -2 -1 -0 -0 -0 0 1 2 1 0 -3 14 32 32 8 -2 -4 -3 -4 -5 -6 -5 -1 1 2 1 1 1 1 0 -1 -2 -2 -2 -2 -0 1 2 2
1 1 0 -0 -0 -1 -1 -1 -1 -1 -1 -1 -1 -1 -2 -2 -2 -2 -2 -1 -1 -1 -1 -2 -3 -3 -3 -3 -2 -2 -2 -1 -1 -0 -0 -0 0 1 1 -0 -1 7 18 29 12 1 -4 -4 -5 -6 -7 -7 -6 -3 -1 0 -0 -1 -1 -1 -1 -1 -2 -3 -3 -2 -2 -1 -1
0 0 -0 -0 -1 -1 -1 -2 -2 -2 -2 -1 -1 -1 -2 -2 -2 -2 -1 -1 -1 -2 -2 -3 -3 -3 -3 -3 -2 -2 -2 -2 -1 -1 -0 -0 -1 -1 -0 -0 -0 1 7 21 19 6 -5 -4 -4 -5 -7 -8 -8 -6 -5 -4 -3 -3 -3 -4 -3 -3 -3 -2 -2 -2 -2 -2 -3
-1 -0 -0 -0 -0 -1 -1 -2 -2 -2 -2 -1 -1 -1 -1 -2 -2 -2 -2 -2 -2 -2 -2 -2 -2 -2 -2 -2 -2 -3 -3 -2 -1 -1 -1 -1 -2 -2 -1 -1 -0 -1 3 18 25 12 -3 -4 -3 -3 -5 -7 -8 -7 -6 -6 -5 -5 -5 -5 -5 -4 -3 -3 -2 -2 -2 -3 -3
-1 -1 -0 -0 -0 -1 -1 -2 -2 -2 -2 -1 -1 -1 -1 -2 -3 -3 -3 -3 -2 -1 -1 -1 -1 -1 -1 -2 -2 -3 -3 -2 -2 -2 -2 -2 -2 -2 -2 -2 -1 -2 1 12 25 17 2 -4 -3 -3 -3 -4 -6 -6 -6 -5 -5 -4 -4 -4 -4 -4 -4 -3 -3 -2 -3 -3 -4
-1 -1 -0 0 0 -0 -1 -1 -2 -2 -2 -2 -2 -1 -1 -1 -2 -2 -3 -3 -2 -2 -2 -2 -2 -2 -3 -3 -3 -3 -3 -3 -3 -2 -2 -2 -2 -2 -2 -2 -2 -2 -1 4 18 19 11 -4 -4 -3 -2 -3 -3 -4 -4 -4 -4 -3 -3 -3 -3 -3 -3 -3 -3 -3 -3 -3 -4
-1 -0 -0 0 0 -0 -0 -1 -1 -1 -2 -2 -2 -2 -1 -1 -1 -1 -2 -2 -3 -3 -4 -4 -4 -4 -4 -4 -4 -4 -4 -3 -3 -2 -2 -2 -2 -2 -1 -1 -2 -3 -3 -2 7 18 19 -3 -4 -3 -2 -2 -2 -3 -3 -3 -3 -3 -3 -3 -3 -3 -3 -3 -3 -3 -3 -3 -3
-0 -0 -0 0 0 0 -0 -0 -1 -1 -2 -2 -2 -1 -1 -1 -1 -1 -2 -3 -3 -4 -4 -4 -3 -4 -4 -4 -4 -4 -3 -2 -2 -3 -3 -3 -2 -1 -1 -1 -1 -2 -3 -3 -0 13 19 3 -1 -1 -0 -2 -3 -3 -2 -2 -3 -3 -3 -3 -3 -2 -2 -2 -3 -3 -3 -3 -3
-1 -0 -0 -0 -0 -0 -0 -0 -1 -1 -2 -1 -1 -1 -1 -1 -2 -2 -2 -3 -3 -3 -3 -2 -2 -2 -3 -3 -3 -3 -2 -2 -3 -3 -4 -4 -3 -1 -0 -0 -1 -2 -2 -3 -3 6 14 14 4 1 2 0 -2 -3 -3 -2 -2 -2 -3 -3 -3 -3 -3 -3 -3 -3 -3 -4 -4
-1 -1 -1 -1 -1 -1 -0 -0 -0 -1 -1 -1 -1 -1 -1 -2 -2 -2 -2 -2 -2 -2 -2 -2 -2 -2 -2 -2 -3 -3 -4 -4 -4 -4 -4 -4 -3 -2 -1 -0 -2 -2 -3 -3 -4 -1 8 22 7 2 2 3 -1 -2 -3 -2 -2 -2 -2 -2 -2 -3 -3 -3 -3 -3 -3 -4 -4
-1 -1 -1 -1 -1 -1 -1 -1 -0 0 0 -0 -1 -1 -2 -2 -2 -2 -2 -2 -2 -3 -3 -3 -3 -3 -2 -2 -3 -4 -4 -4 -4 -3 -3 -3 -3 -2 -2 -1 -2 -3 -3 -3 -4 -5 -0 18 10 4 1 3 1 -1 -3 -3 -2 -1 -0 -0 -0 -1 -1 -2 -2 -2 -3 -3 -4
-2 -2 -2 -2 -2 -2 -2 -2 -1 -1 -0 -0 -0 -1 -1 -1 -2 -2 -2 -3 -3 -4 -4 -4 -4 -3 -3 -2 -3 -3 -4 -4 -3 -3 -2 -2 -2 -3 -3 -2 -2 -2 -2 -2 -3 -5 -4 4 14 9 1 1 1 -1 -3 -3 -2 -0 0 1 1 0 -0 -1 -1 -1 -1 -1 -2
-2 -3 -3 -3 -2 -2 -2 -3 -2 -1 -1 0 0 -0 -1 -1 -1 -2 -3 -3 -4 -4 -4 -4 -4 -3 -3 -3 -2 -2 -3 -2 -2 -2 -1 -1 -2 -2 -2 -3 -2 -2 -2 -2 -2 -4 -5 -6 11 12 5 -2 -1 -1 -2 -3 -2 -1 -0 0 -0 -0 -0 -0 -0 -0 -0 -0 -0
-2 -3 -3 -3 -3 -3 -2 -2 -2 -1 -0 0 0 -0 -1 -1 -2 -2 -2 -3 -3 -3 -3 -3 -3 -3 -3 -3 -3 -2 -2 -1 -1 -1 -1 -1 -1 -1 -2 -2 -2 -2 -2 -3 -3 -4 -6 -8 1 11 13 -0 -2 -2 -1 -2 -2 -2 -2 -1 -1 -2 -1 -1 -0 0 0 0 0
Height
3054 3051 3048 3045 3041 3038 3036 3032 3029 3025 3022 3018 3014 3010 3006 3003 2999 2995 2991 2988 2986 2983 2981 2979 2977 2975 2972 2970 2966 2964 2961 2959 2956 2954 2951 2947 2944 2941 2937 2933 2930 2926 2923 2919 2916 2913 2911 2908 2906 2904 2902 2900 2899 2898 2898 2898 2898 2898 2898 2898 2898 2899 2899 2900 2901 2902 2903 2904 2905
3053 3050 3046 3043 3040 3037 3034 3031 3028 3024 3020 3016 3013 3009 3006 3002 2998 2994 2991 2987 2985 2983 2981 2979 2976 2975 2972 2969 2966 2963 2961 2959 2956 2954 2951 2948 2945 2941 2937 2933 2930 2926 2923 2919 2916 2913 2910 2907 2905 2903 2901 2899 2898 2898 2897 2897 2897 2897 2897 2897 2898 2898 2899 2900 2900 2901 2902 2903 2904
3052 3049 3045 3042 3039 3036 3033 3030 3027 3023 3019 3016 3012 3008 3005 3001 2997 2993 2990 2987 2985 2982 2980 2978 2976 2974 2971 2969 2966 2964 2961 2959 2956 2954 2951 2948 2945 2942 2938 2934 2930 2926 2923 2920 2916 2913 2910 2907 2905 2902 2901 2899 2898 2898 2897 2897 2897 2897 2897 2897 2897 2898 2898 2899 2900 2901 2902 2902 2903
3051 3048 3045 3041 3038 3036 3033 3029 3026 3022 3019 3015 3011 3007 3004 3000 2996 2992 2989 2986 2984 2982 2980 2978 2976 2974 2971 2968 2966 2964 2961 2959 2957 2954 2951 2948 2945 2942 2939 2935 2931 2927 2924 2920 2917 2914 2911 2908 2906 2903 2901 2900 2899 2898 2897 2897 2897 2896 2896 2897 2897 2897 2898 2899 2900 2901 2901 2902 2903
3050 3047 3044 3041 3038 3035 3032 3029 3025 3021 3018 3014 3011 3007 3003 2999 2995 2991 2989 2986 2984 2982 2980 2978 2976 2973 2971 2969 2966 2964 2962 2960 2957 2954 2951 2948 2946 2943 2939 2936 2932 2928 2924 2921 2918 2915 2912 2910 2907 2905 2903 2901 2899 2898 2898 2897 2897 2896 2896 2897 2897 2897 2898 2899 2900 2901 2901 2902 2903
3049 3046 3043 3040 3037 3034 3031 3028 3024 3021 3017 3014 3010 3006 3002 2998 2995 2991 2988 2986 2984 2982 2980 2978 2976 2973 2971 2969 2966 2964 2962 2960 2957 2955 2952 2949 2946 2943 2940 2936 2933 2929 2926 2922 2919 2916 2913 2911 2909 2906 2905 2903 2901 2900 2898 2898 2897 2897 2897 2897 2897 2898 2898 2899 2900 2901 2902 2903 2903
3048 3045 3042 3039 3036 3033 3030 3027 3023 3020 3016 3013 3009 3006 3002 2998 2995 2991 2988 2986 2984 2981 2980 2977 2975 2973 2971 2969 2966 2964 2962 2960 2958 2955 2952 2949 2946 2943 2940 2937 2934 2930 2927 2923 2920 2917 2915 2912 2910 2908 2906 2905 2903 2901 2900 2899 2899 2898 2898 2898 2898 2898 2899 2900 2901 2902 2902 2903 2903
3047 3045 3042 3039 3036 3033 3030 3026 3023 3019 3016 3012 3009 3005 3001 2998 2994 2991 2988 2985 2983 2981 2979 2977 2975 2973 2971 2969 2966 2964 2962 2960 2958 2955 2952 2949 2946 2943 2940 2937 2935 2931 2928 2925 2921 2918 2916 2913 2911 2910 2908 2906 2905 2903 2902 2901 2901 2900 2899 2899 2899 2900 2901 2901 2902 2902 2903 2904 2904
3047 3044 3041 3038 3035 3032 3029 3026 3022 3019 3015 3012 3008 3005 3001 2997 2994 2991 2987 2985 2983 2981 2979 2977 2975 2973 2971 2969 2966 2965 2962 2960 2958 2955 2952 2949 2946 2943 2941 2938 2935 2932 2929 2925 2922 2920 2917 2915 2913 2911 2909 2908 2906 2905 2904 2903 2902 2901 2901 2901 2901 2901 2901 2902 2902 2903 2904 2905 2905
3046 3043 3040 3037 3034 3031 3028 3025 3021 3018 3015 3011 3008 3004 3001 2997 2994 2991 2987 2985 2982 2980 2979 2977 2975 2973 2971 2969 2966 2964 2962 2961 2958 2956 2953 2950 2946 2944 2941 2938 2936 2932 2929 2926 2923 2920 2918 2915 2914 2912 2910 2909 2907 2906 2905 2904 2903 2902 2902 2902 2902 2902 2902 2903 2903 2904 2905 2906 2906
3046 3043 3040 3036 3033 3030 3027 3024 3021 3017 3014 3011 3008 3004 3001 2997 2994 2990 2987 2984 2982 2980 2978 2976 2974 2972 2971 2968 2966 2964 2962 2961 2958 2956 2953 2950 2947 2945 2942 2939 2936 2933 2930 2927 2924 2921 2918 2916 2915 2913 2911 2910 2908 2907 2906 2906 2905 2904 2903 2903 2903 2903 2903 2904 2905 2906 2906 2906 2906
3045 3042 3039 3036 3032 3030 3026 3023 3020 3017 3014 3011 3007 3004 3001 2997 2994 2990 2987 2984 2982 2980 2978 2976 2974 2972 2970 2968 2966 2964 2962 2961 2959 2956 2954 2951 2949 2946 2943 2940 2937 2934 2931 2928 2926 2923 2920 2918 2916 2914 2912 2911 2910 2909 2908 2907 2906 2906 2905 2904 2904 2904 2905 2905 2906 2906 2906 2906 2906
3044 3041 3038 3035 3031 3029 3026 3022 3019 3016 3013 3010 3007 3004 3000 2997 2993 2990 2987 2984 2981 2979 2977 2976 2974 2971 2970 2968 2966 2964 2962 2961 2959 2957 2955 2952 2950 2947 2944 2941 2938 2935 2931 2929 2927 2925 2922 2920 2917 2916 2914 2913 2911 2910 2909 2908 2908 2907 2906 2906 2905 2906 2906 2906 2906 2907 2907 2906 2906
3043 3040 3037 3034 3031 3028 3025 3022 3019 3016 3013 3010 3007 3004 3000 2997 2993 2990 2987 2984 2981 2979 2977 2975 2973 2971 2969 2968 2966 2964 2962 2961 2959 2957 2955 2953 2951 2948 2945 2942 2939 2936 2933 2930 2928 2926 2924 2921 2919 2918 2916 2915 2913 2912 2911 2910 2909 2908 2908 2907 2907 2907 2907 2907 2907 2907 2907 2906 2907
3042 3039 3036 3033 3030 3027 3024 3021 3018 3015 3012 3010 3006 3003 3000 2996 2993 2990 2987 2984 2981 2978 2976 2974 2972 2971 2969 2967 2966 2964 2962 2961 2959 2957 2955 2954 2952 2949 2947 2944 2941 2937 2934 2932 2930 2928 2926 2923 2921 2920 2918 2916 2915 2914 2913 2912 2911 2910 2909 2909 2908 2908 2908 2908 2907 2907 2907 2907 2907
3042 3039 3036 3032 3030 3026 3023 3021 3018 3015 3012 3009 3006 3003 3000 2996 2993 2990 2986 2983 2981 2978 2976 2974 2972 2970 2969 2967 2966 2964 2962 2961 2959 2957 2955 2954 2952 2950 2948 2945 2942 2939 2936 2934 2931 2929 2927 2925 2923 2921 2920 2919 2917 2916 2914 2913 2912 2911 2911 2910 2910 2909 2909 2908 2908 2908 2908 2908 2907
3041 3038 3035 3032 3029 3026 3023 3020 3017 3014 3011 3009 3006 3002 2999 2996 2993 2990 2986 2983 2981 2978 2976 2973 2971 2970 2968 2966 2965 2963 2962 2961 2959 2957 2955 2954 2952 2951 2948 2946 2943 2941 2938 2935 2933 2931 2929 2927 2925 2923 2922 2920 2919 2917 2916 2915 2914 2913 2913 2912 2911 2910 2910 2909 2909 2909 2909 2908 2908
3041 3038 3035 3031 3029 3026 3022 3020 3017 3014 3011 3008 3005 3002 2999 2996 2993 2990 2986 2983 2981 2978 2975 2973 2971 2969 2967 2966 2965 2963 2961 2960 2959 2957 2955 2954 2952 2951 2949 2947 2945 2942 2939 2937 2935 2933 2931 2930 2927 2926 2924 2922 2921 2919 2918 2917 2916 2915 2914 2913 2912 2911 2911 2911 2911 2910 2910 2909 2909
3040 3037 3034 3031 3028 3025 3022 3019 3016 3014 3011 3008 3005 3002 2999 2996 2993 2990 2986 2983 2981 2978 2975 2973 2971 2969 2967 2966 2964 2963 2961 2960 2959 2957 2955 2954 2952 2951 2949 2948 2946 2943 2941 2938 2936 2935 2934 2932 2930 2928 2927 2925 2923 2922 2920 2919 2918 2916 2915 2914 2914 2913 2913 2913 2912 2912 2911 2911 2910
3040 3037 3034 3031 3028 3025 3022 3019 3016 3013 3011 3008 3005 3001 2999 2996 2992 2990 2986 2984 2981 2978 2975 2972 2970 2968 2966 2965 2964 2962 2961 2959 2958 2957 2956 2954 2952 2951 2949 2948 2946 2944 2941 2939 2937 2936 2935 2933 2932 2931 2929 2928 2926 2924 2922 2921 2920 2918 2917 2916 2916 2915 2914 2914 2914 2913 2912 2912 2911
3039 3036 3033 3031 3027 3025 3021 3019 3016 3013 3010 3007 3005 3001 2999 2996 2992 2990 2986 2984 2981 2978 2975 2972 2970 2968 2966 2964 2963 2962 2960 2959 2958 2957 2956 2954 2952 2951 2949 2948 2946 2945 2942 2940 2939 2937 2936 2935 2933 2932 2931 2930 2928 2926 2924 2922 2921 2920 2920 2919 2917 2916 2916 2915 2914 2914 2913 2912 2912
3039 3036 3033 3030 3027 3024 3021 3018 3016 3013 3010 3007 3005 3001 2998 2996 2992 2990 2986 2984 2981 2978 2975 2972 2970 2968 2966 2964 2962 2961 2960 2959 2958 2957 2956 2954 2953 2951 2949 2948 2946 2945 2943 2941 2939 2938 2937 2936 2935 2933 2932 2931 2929 2928 2926 2924 2923 2922 2921 2920 2919 2918 2917 2916 2915 2915 2914 2913 2912
3038 3036 3032 3030 3027 3024 3021 3018 3016 3013 3010 3007 3004 3001 2999 2996 2993 2990 2987 2984 2981 2978 2976 2973 2970 2967 2965 2963 2962 2961 2959 2959 2958 2957 2956 2954 2953 2951 2950 2948 2946 2944 2942 2941 2940 2939 2938 2936 2935 2934 2933 2931 2930 2929 2927 2926 2925 2923 2922 2921 2921 2920 2918 2917 2916 2915 2915 2914 2913
3038 3035 3032 3029 3026 3024 3021 3018 3016 3013 3010 3007 3005 3001 2999 2996 2993 2990 2987 2984 2981 2978 2976 2973 2970 2968 2966 2963 2961 2960 2959 2958 2957 2956 2956 2954 2953 2952 2951 2949 2947 2944 2942 2941 2940 2939 2938 2937 2936 2934 2933 2932 2931 2930 2928 2927 2926 2925 2924 2923 2922 2921 2920 2918 2917 2916 2915 2915 2914
3037 3035 3032 3029 3026 3023 3021 3018 3015 3013 3010 3007 3005 3002 2999 2996 2993 2990 2987 2985 2981 2979 2976 2973 2970 2968 2965 2963 2961 2960 2958 2957 2956 2956 2955 2954 2953 2952 2951 2950 2948 2946 2943 2941 2941 2939 2938 2937 2936 2935 2933 2932 2931 2930 2929 2927 2926 2925 2924 2923 2922 2922 2921 2920 2919 2917 2916 2915 2915
3037 3034 3031 3029 3026 3023 3021 3018 3015 3013 3010 3007 3005 3002 2999 2996 2993 2991 2988 2985 2982 2979 2976 2973 2971 2968 2965 2963 2961 2959 2958 2957 2956 2955 2954 2954 2952 2951 2951 2950 2948 2948 2946 2942 2941 2939 2938 2937 2936 2935 2933 2932 2931 2930 2929 2928 2927 2926 2925 2924 2923 2922 2921 2920 2919 2918 2917 2916 2915
3037 3034 3031 3029 3026 3023 3021 3018 3015 3012 3010 3007 3005 3002 2999 2996 2993 2991 2988 2985 2982 2979 2976 2974 2971 2968 2966 2963 2961 2959 2958 2956 2955 2955 2954 2953 2952 2951 2950 2949 2948 2948 2948 2943 2941 2939 2938 2937 2936 2935 2933 2932 2930 2929 2929 2928 2926 2926 2925 2924 2923 2922 2921 2920 2919 2918 2917 2916 2915
3037 3034 3031 3029 3026 3023 3021 3018 3015 3012 3010 3007 3005 3002 2999 2996 2994 2991 2988 2985 2983 2980 2977 2974 2971 2968 2966 2963 2961 2959 2957 2956 2955 2954 2953 2952 2951 2951 2950 2948 2947 2948 2948 2945 2941 2938 2938 2936 2936 2935 2933 2932 2930 2929 2928 2927 2926 2925 2924 2923 2922 2921 2921 2920 2919 2918 2917 2916 2915
3037 3034 3031 3028 3026 3023 3021 3018 3015 3012 3010 3007 3005 3002 3000 2997 2994 2991 2988 2986 2983 2980 2977 2974 2971 2969 2966 2963 2961 2959 2957 2956 2954 2953 2952 2951 2951 2950 2949 2948 2947 2947 2947 2946 2941 2938 2937 2936 2935 2934 2933 2932 2930 2929 2927 2926 2925 2924 2923 2922 2921 2921 2920 2919 2918 2917 2916 2916 2914
3036 3034 3031 3028 3026 3023 3020 3018 3015 3012 3010 3007 3005 3002 3000 2997 2994 2991 2989 2986 2983 2981 2977 2975 2972 2969 2966 2964 2961 2959 2957 2956 2954 2953 2952 2951 2950 2949 2948 2947 2946 2946 2946 2946 2943 2939 2936 2936 2935 2934 2932 2931 2930 2929 2927 2926 2925 2924 2923 2922 2921 2920 2919 2918 2917 2916 2915 2914 2913
3036 3033 3031 3028 3026 3023 3020 3017 3015 3012 3010 3007 3005 3002 3000 2997 2994 2991 2989 2986 2983 2981 2978 2975 2972 2970 2967 2965 2962 2960 2957 2956 2954 2952 2951 2950 2949 2948 2947 2946 2946 2945 2945 2945 2944 2940 2936 2935 2934 2933 2932 2931 2930 2928 2927 2926 2925 2924 2922 2921 2920 2919 2918 2917 2916 2915 2914 2913 2912
3036 3033 3030 3028 3025 3023 3020 3017 3015 3012 3010 3007 3005 3003 3000 2997 2995 2992 2989 2986 2984 2981 2978 2975 2973 2970 2968 2965 2962 2960 2958 2956 2954 2952 2951 2950 2948 2947 2946 2946 2945 2944 2944 2944 2944 2941 2936 2935 2934 2933 2931 2931 2929 2928 2926 2925 2924 2923 2922 2921 2919 2918 2917 2916 2915 2913 2912 2911 2910
3035 3033 3030 3028 3025 3022 3020 3017 3015 3012 3010 3008 3005 3003 3000 2998 2995 2992 2990 2987 2984 2981 2978 2976 2973 2970 2968 2965 2963 2961 2958 2956 2954 2952 2951 2949 2948 2947 2946 2945 2944 2943 2943 2943 2943 2941 2938 2934 2933 2932 2931 2930 2929 2927 2926 2925 2923 2922 2921 2920 2918 2917 2916 2915 2913 2912 2911 2910 2909
3035 3032 3030 3027 3025 3022 3020 3017 3015 3012 3010 3008 3006 3003 3001 2998 2996 2993 2990 2987 2984 2981 2978 2976 2973 2971 2968 2966 2963 2961 2959 2957 2955 2952 2951 2949 2948 2946 2946 2944 2943 2942 2942 2941 2942 2942 2939 2934 2933 2932 2931 2929 2928 2927 2926 2924 2923 2921 2920 2919 2917 2916 2915 2913 2912 2911 2910 2909 2908
3035 3032 3030 3027 3025 3022 3020 3017 3015 3013 3010 3008 3006 3003 3001 2998 2996 2993 2991 2988 2985 2982 2979 2976 2973 2971 2968 2966 2964 2961 2959 2957 2955 2953 2951 2949 2948 2946 2945 2944 2943 2942 2941 2941 2940 2941 2940 2935 2933 2932 2931 2929 2927 2926 2925 2924 2922 2921 2919 2918 2916 2915 2914 2912 2911 2910 2908 2907 2906
3034 3032 3029 3027 3025 3022 3020 3018 3015 3013 3011 3008 3006 3003 3001 2999 2996 2994 2991 2988 2985 2982 2980 2977 2974 2971 2969 2966 2964 2962 2960 2958 2956 2954 2951 2950 2948 2947 2946 2944 2943 2941 2941 2940 2940 2940 2940 2937 2933 2931 2931 2929 2927 2925 2924 2923 2921 2920 2919 2917 2916 2915 2913 2912 2910 2909 2908 2906 2905
3034 3031 3029 3026 3024 3022 3020 3017 3015 3013 3011 3008 3006 3004 3001 2999 2996 2994 2991 2989 2986 2983 2980 2978 2975 2972 2970 2967 2965 2963 2961 2958 2956 2954 2952 2951 2949 2947 2946 2945 2943 2941 2940 2940 2939 2939 2939 2939 2934 2931 2930 2929 2926 2925 2923 2922 2921 2919 2918 2916 2915 2914 2912 2911 2910 2908 2907 2906 2904
3034 3031 3029 3026 3024 3022 3020 3017 3015 3013 3011 3008 3006 3004 3001 2999 2997 2994 2991 2989 2986 2984 2981 2978 2976 2973 2971 2968 2966 2963 2961 2959 2957 2955 2953 2951 2950 2948 2946 2945 2944 2942 2941 2940 2939 2938 2938 2939 2935 2932 2930 2928 2926 2924 2922 2921 2920 2918 2917 2916 2915 2913 2912 2911 2909 2908 2906 2905 2903
3033 3031 3028 3026 3024 3021 3019 3017 3015 3013 3011 3009 3006 3004 3002 2999 2997 2994 2992 2990 2987 2984 2981 2979 2976 2973 2971 2968 2966 2964 2961 2960 2958 2956 2954 2952 2950 2949 2947 2946 2944 2943 2941 2940 2939 2939 2937 2936 2936 2933 2929 2928 2926 2924 2922 2921 2919 2918 2917 2916 2914 2913 2911 2910 2908 2907 2906 2904 2903
3033 3031 3028 3026 3024 3021 3019 3017 3015 3013 3011 3009 3006 3004 3002 3000 2997 2995 2992 2990 2987 2985 2982 2979 2977 2974 2971 2969 2967 2964 2962 2960 2958 2956 2955 2953 2951 2949 2947 2946 2945 2943 2942 2941 2940 2939 2937 2935 2936 2934 2931 2928 2926 2924 2922 2921 2919 2917 2916 2915 2913 2912 2911 2910 2908 2907 2905 2904 2902
3033 3031 3028 3026 3023 3021 3019 3017 3015 3013 3011 3009 3006 3004 3002 3000 2997 2995 2993 2990 2988 2985 2983 2980 2977 2975 2972 2970 2967 2965 2963 2961 2959 2957 2955 2953 2951 2950 2948 2946 2945 2943 2942 2941 2939 2938 2936 2935 2933 2933 2932 2928 2926 2924 2922 2921 2919 2917 2916 2914 2913 2911 2910 2909 2908 2906 2905 2903 2901